This is the latest recevied weather packets stored in our database for station/object AD8AK. If no packets are shown the sender has not sent any weather packets the latest 10 day(s).
| Time | Temp. | Humidity | Pressure | Rain* | Wind** | Luminosity | Snow |
|---|---|---|---|---|---|---|---|
| 1778004298 | - | - | - | 0 mm | - | - | - |
| 1778003995 | - | - | - | 0 mm | - | - | - |
| 1778003691 | - | - | - | 0 mm | - | - | - |
| 1778003388 | - | - | - | 0 mm | - | - | - |
| 1778003085 | 12.78° C | 87% | 1008 hPa | 0 mm | - | - | - |
| 1778002781 | 12.78° C | 87% | 1007.8 hPa | 0 mm | - | - | - |
| 1778002478 | 12.78° C | 86% | 1008.2 hPa | 1.27 mm | - | - | - |
| 1778002175 | 12.78° C | 86% | 1008.1 hPa | 1.27 mm | - | - | - |
| 1778001873 | 12.78° C | 86% | 1008.1 hPa | 1.78 mm | - | - | - |
| 1778001572 | 12.78° C | 85% | 1008 hPa | 3.05 mm | - | - | - |
| 1778001270 | 13.33° C | 84% | 1008.2 hPa | 1.27 mm | - | - | - |
| 1778000966 | 13.89° C | 83% | 1008.1 hPa | 0 mm | - | - | - |
| 1778000663 | 13.89° C | 81% | 1008.1 hPa | 0 mm | - | - | - |
| 1778000358 | 13.89° C | 80% | 1008.2 hPa | 0 mm | - | - | - |
| 1778000055 | 14.44° C | 80% | 1008.2 hPa | 0 mm | - | - | - |
| 1777999750 | 15° C | 81% | 1008.4 hPa | 0 mm | - | - | - |
| 1777999447 | 15° C | 80% | 1008.2 hPa | 0 mm | - | - | - |
| 1777999145 | 15° C | 78% | 1008.1 hPa | 0 mm | - | - | - |
| 1777998843 | 15° C | 77% | 1008.4 hPa | 0 mm | - | - | - |
| 1777998542 | 15° C | 77% | 1008.1 hPa | 0 mm | - | - | - |
| 1777998237 | 15.56° C | 77% | 1008.3 hPa | 0 mm | - | - | - |
| 1777997935 | 15.56° C | 75% | 1008.2 hPa | 0 mm | - | - | - |
| 1777997631 | 15.56° C | 74% | 1008.1 hPa | 0 mm | - | - | - |
| 1777997329 | 15.56° C | 74% | 1008.1 hPa | 0 mm | - | - | - |
| 1777997027 | 15.56° C | 74% | 1008.2 hPa | 0 mm | - | - | - |
* Rain latest hour (hover to see other rain measurements)
** Current wind speed in m/s (hover to see current wind gust speed)